Location: Newark
(43.0000°N, 1.6781°W)
Time: 22:19:26
(UTC+00:00)

Vanguard 1 - Pass Details

Date: 08 December 2021
Orbit: 652 x 3830 km, 34.2° (Epoch: 16 January)

Event Time Altitude Azimuth Distance (km) Brightness Sun altitude
Exits shadow 02:21:57 57° 144° (SE) 3,906 12.8 -54.1°
Drops below altitude 10° 02:35:40 10° 112° (ESE) 5,546 14.2 -51.8°
Sets 02:39:11 0° 109° (ESE) 6,221 14.6 -51.2°
